OBJECT D, 68694

Orbit data source: Space-Track

You're viewing an Uncataloged Satellite

Recently launched and/or uncataloged satellites may have evolving metadata. Metadata may include but not limited to: Owner, Maufacturer, Bus, Motor, and Mission.

OBJECT D, 68694 is a satellite owned by Changguang WJ (CN) in SSO that was launched on Tue, 14 Apr 2026 UTC via a LIJIAN-1 launch vehicle from the Jiuquan Satellite Launch Center, China (JSC). Unknown objects in Earth's orbit typically refer to objects detected orbiting the Earth but have not yet been identified or cataloged. These objects could be anything from previously untracked satellites, spent rocket stages, debris from satellite collisions, or even natural meteoroids temporarily captured by Earth's gravity.

Loading next visibility...
Identifier
68694, 2026-080D
Orbit
SSO
Country
Flag of CNCN / PRC
Related business
Manufacturer
Changguang WJ
Mission
Operational spacecraft
Bus & Motor
JL-1GF07, Unknown motor
Mass
~50 kg wet, ~50 kg dry
Launch date (UTC)
2026-04-14 (2 months ago)
Launch vehicle
LIJIAN-1
Launch site
Jiuquan Satellite Launch Center, China (JSC)
Object type
Unknown
Shape & HBR
Unknown shape, 1.1 m
Radar Cross Section
Large (>1 m²)

Expand to show TLE details & history
Last TLE update: 10 hours ago

TLE from 10 hours ago
0 OBJECT D
1 68694U 26080D   26150.81954785  .00007969  00000-0  51053-3 0  9998
2 68694  97.6670 226.4469 0019796 114.1023 246.2279 15.08649795  7022
Epoch: 2026-05-30T19:40Z
TLE epoch observation values (Epoch: 2026-05-30T19:40:08.934Z)
Latitude
0.00003°
Longitude
43.07957°
Altitude
548.937 km
Speed
7.584 km/s
True Right ascension
15h 05m 47s
True Declination
0° 00' 00"
Sunlit
Object was in full shadow at epoch
Visualization orbit readout
Latitude
Unknown
Longitude
Unknown
Altitude
Unknown
Speed
Unknown
Apparent Right ascension
Unknown
Apparent Declination
Unknown
Sunlit
N/A
Visualization observer readout
Local Sidereal Time
15:19:14
Azimuth
Unknown
Elevation
Unknown
Doppler factor
Unknown
Orbital elements
Apogee altitude
551.007 km
Perigee altitude
523.627 km
Semi-major axis
6,915.454 km
Eccentricity
0.00198
Inclination
97.667°
RAAN
226.4469°
Arg. of periapsis
114.1023°
True anomaly
246.02051°
Mean anomaly
246.2279°
Eccentric anomaly
246.12418°
Mean motion
3.77409 °/min
Orbital period
95.39 mins
BSTAR
0.00051053
Loading maneuver chart data...
Computing Atmospheric mass density...
Loading historical data...
Loading historical data...
Loading historical data...
Loading historical data...
Loading historical data...
Loading historical data...
Loading historical data...

Documentation

Showing up to 5 results
|